sat.trackr.live / text

‹ back to catalog

O3B FM2

NORAD 39190 · 2013-031C

PAYLOAD ACTIVE UNKNOWN

§ Identity

Operator
Country
O3B
Launch date
2013-06-25
Launch site
FRGUI
Launch vehicle
Mass (kg)
RCS (m²)
36.08

Purposes: comms

External: N2YO · Heavens-Above · Gunter

§ Orbital elements

Epoch: 2026-05-24T10:30:39.979008Z

Period
287.93 min
Inclination
0.0415°
Eccentricity
0.0002764
Mean motion
5.00116019 rev/d
Perigee alt
8,061.9 km
Apogee alt
8,069.9 km
Semi-major
14,444.0 km
B*
0.0000e+0
RAAN
339.6432°
Arg perigee
79.8021°
Mean anomaly
300.5812°
Rev number
23,592

§ Raw data

O3B FM21 39190U 13031C   26144.43796272 -.00000024  00000+0  00000+0 0  99922 39190   0.0415 339.6432 0002764  79.8021 300.5812  5.00116019235923

JSON: /api/v1/satellites/39190 · /tle

For live sub-satellite position, see the globe view (requires WebGL).

§ Visibility from observer

Set your observer location to see the next 7 days of passes ≥ 10°. The values pass through the URL so the page stays shareable.

No JS? Fill the form by hand. The geolocation button needs JavaScript.